Home > Time Zones > World Clock > Weather > U.S.A. > Bend > Past weeks

Flag for U.S.A. Weather past 2 weeks in Bend, Oregon, U.S.A.

Now
61 °F

Clear.


Feels Like: 61 °F
Forecast: 48 / 74 °F
Wind: 8 mph from Northwest

Location: Roberts Field Airport

Current Time: Aug 22, 2014 at 11:01:15 PM

Latest Report: Aug 22, 2014 at 9:56 PM


Visibility: 10 mi

Pressure: 30.05 "Hg

Humidity: 50%

Dew point: 42 °F

Location of BendLocation

Historic Weather in Bend — Graph

°F

Bend temperature yesterday

Maximum temperature yesterday: 80 °F (at 4:56 PM)
Minimum temperature yesterday: 42 °F (at 5:56 AM)
Average temperature yesterday: 61 °F

Past Weeks' High & Low Weather Summary

 TemperatureHumidityPressure
High95 °F (Aug 10, 3:56 PM)97% (Aug 15, 1:56 AM)30.09 "Hg (Aug 15, 1:56 AM)
Low42 °F (Aug 21, 5:56 AM)10% (Aug 11, 4:56 PM)29.73 "Hg (Aug 19, 3:56 PM)
Average67 °F51%29.96 "Hg
* Reported Aug 7 9:56 PM — Aug 22 9:56 PM, Bend, Weather by CustomWeather, © 2014

Note: Actual official high and low records may vary slightly from our data, if they occured in-between our weather recording intervals... More about our weather records

Advertising

Bend weather history for previous 24 hours

 ConditionsComfort  
Time TempWeatherWind HumidityBarometerVisibility
9:56 PM
Aug 22
61 °FClear.8 mph50%30.05 "Hg10 mi
8:56 PM65 °FPartly sunny.10 mph44%30.03 "Hg10 mi
7:56 PM67 °FSunny.8 mph36%30.00 "Hg10 mi
6:56 PM71 °FSunny.14 mph28%29.98 "Hg10 mi
5:56 PM74 °FPassing clouds.14 mph26%29.97 "Hg10 mi
4:56 PM75 °FSunny.12 mph23%29.96 "Hg10 mi
3:56 PM75 °FSunny.13 mph25%29.96 "Hg10 mi
2:56 PM74 °FScattered clouds.14 mph26%29.96 "Hg10 mi
1:56 PM72 °FPassing clouds.9 mph30%29.98 "Hg10 mi
12:56 PM71 °FSunny.12 mph32%29.98 "Hg10 mi
11:56 AM69 °FSunny.6 mph36%29.99 "Hg10 mi
10:56 AM66 °FSunny.10 mph40%29.98 "Hg10 mi
9:56 AM63 °FSunny.5 mph43%29.98 "Hg10 mi
8:56 AM60 °FSunny.No wind46%29.98 "Hg10 mi
7:56 AM51 °FSunny.5 mph61%29.98 "Hg10 mi
6:56 AM43 °FPassing clouds.5 mph79%29.98 "Hg10 mi
5:56 AM43 °FClear.5 mph79%29.97 "Hg10 mi
4:56 AM46 °FClear.No wind73%29.95 "Hg10 mi
3:56 AM47 °FClear.3 mph74%29.95 "Hg10 mi
2:56 AM48 °FClear.No wind71%29.96 "Hg10 mi
1:56 AM46 °FClear.No wind73%29.96 "Hg10 mi
12:56 AM50 °FClear.3 mph68%29.95 "Hg10 mi
11:56 PM
Aug 21
53 °FClear.5 mph64%29.94 "Hg10 mi
Weather by CustomWeather, © 2014

See weather overviewHow to use our weather pages